Find Hawk 12A

NORAD ID: 64623 Int'l Des: 2025-138 Owner: HE360 Country: US Constellation: hawkeye-360 operational
LEOCIRCULARRETROGRADESSO

当前视图

正在加载3D地球...

About Hawk 12A

Hawk 12A (NORAD 64623) is a hawkeye-360 constellation satellite launched Jun 26, 2025 by HE360 of US. It operates in LEO, CIRCULAR, RETROGRADE, SSO orbit with a mass of 31.00 kg.

关于 Hawk 12A

正在加载描述...

即将过境

Passes for default location (London). Set your location on the main map for personalized predictions.

高度历史

Loading altitude history...

两行轨道根数

1 64623U 25138C 26195.52451332 .00001867 00000-0 93854-4 0 9993
2 64623 97.4412 197.8525 0015097 48.8475 311.4059 15.18399240 58014
Epoch: Jul 14, 2026 • Age: 7 hours

当前状态

高度 521.7 km
远地点 / 近地点 N/A
速度 7.60 km/s
星下点 -3.53°S, 149.21°E
发射日期 Jun 26, 2025
运行时间 1 year
类型 other

技术详情

分类 Payload
质量 31.00 kg
干质量 30.00 kg
总质量 31.00 kg
长度 0.45 m
直径 0.30 m
跨度 1.00 m
形状 Box + 2 pan
制造商 UTIAS
平台类型 Hawk2G
阶段状态 In Orbit
所有者/国家 HE360/US

Most Searched